Show Low, AZ

4:15 PM MST on October 17, 2019 (GMT -0700)
Show Low Municipal

Weather History for KSOW - September, 2019

Change the Weather History Date:

Friday, September 20, 2019

  Actual Average Record
Temperature  
Mean Temperature 66 °F -  
Max Temperature 77 °F 74 °F 86 °F (2005)
Min Temperature 55 °F 53 °F 28 °F (1971)
Cooling Degree Days 1    
Growing Degree Days 16 (Base 50)    
Moisture  
Dew Point 31 °F    
Average Humidity 29    
Maximum Humidity 42    
Minimum Humidity 17    
Precipitation  
Precipitation 0.00 in - - ()
Sea Level Pressure  
Sea Level Pressure 30.09 in    
Wind  
Wind Speed 14 mph ()    
Max Wind Speed 30 mph    
Max Gust Speed 40 mph    
Visibility 10.0 miles    
Events      
Averages and records for this station are not official NWS values.
T = Trace of Precipitation, MM = Missing Value Source: Averaged Metar Reports

Daily Weather History Graph

Daily Weather History Graph

Search for Another Location

Airport or City:

Astronomy

Sep. 20, 2019 Rise Set
Actual Time 6:06 AM MST 6:19 PM MST
Civil Twilight 5:41 AM MST 6:44 PM MST
Nautical Twilight 5:12 AM MST 7:14 PM MST
Astronomical Twilight 4:42 AM MST 7:43 PM MST
Moon 10:27 PM MST (9/20) 11:59 AM MST (9/20)
Length of Visible Light 13h 03m
Length of Day
12h 13m
Waning Gibbous, 64% of the Moon is Illuminated
Sep 20
Waning Gibbous
Sep 21
Last Quarter
Sep 28
New
Oct 5
First Quarter
Oct 13
Full

Hourly Weather History & Observations

Time (MST) Temp. Dew Point Humidity Pressure Visibility Wind Dir Wind Speed Gust Speed Precip Events Conditions
12:15 AM 60.8 °F 35.6 °F 39% 30.05 in 10.0 mi South 6.9 mph - N/A   Clear
12:35 AM 62.6 °F 35.6 °F 37% 30.05 in 10.0 mi SSW 17.3 mph - N/A   Clear
12:55 AM 62.6 °F 35.6 °F 37% 30.06 in 10.0 mi South 12.7 mph - N/A   Clear
1:15 AM 62.6 °F 35.6 °F 37% 30.06 in 10.0 mi South 13.8 mph - N/A   Clear
1:35 AM 60.8 °F 35.6 °F 39% 30.06 in 10.0 mi South 13.8 mph - N/A   Clear
1:55 AM 60.8 °F 33.8 °F 36% 30.06 in 10.0 mi South 11.5 mph - N/A   Clear
2:15 AM 60.8 °F 33.8 °F 36% 30.05 in 10.0 mi South 12.7 mph - N/A   Clear
2:35 AM 60.8 °F 33.8 °F 36% 30.06 in 10.0 mi South 11.5 mph - N/A   Clear
2:55 AM 60.8 °F 33.8 °F 36% 30.05 in 10.0 mi South 12.7 mph 20.7 mph N/A   Clear
3:15 AM 59.0 °F 35.6 °F 42% 30.05 in 10.0 mi South 10.4 mph - N/A   Clear
3:35 AM 59.0 °F 33.8 °F 39% 30.05 in 10.0 mi South 11.5 mph - N/A   Clear
3:55 AM 59.0 °F 33.8 °F 39% 30.04 in 10.0 mi South 10.4 mph - N/A   Clear
4:15 AM 57.2 °F 33.8 °F 41% 30.04 in 10.0 mi South 11.5 mph - N/A   Clear
4:35 AM 57.2 °F 33.8 °F 41% 30.04 in 10.0 mi South 10.4 mph 17.3 mph N/A   Clear
4:55 AM 57.2 °F 32.0 °F 38% 30.05 in 10.0 mi South 12.7 mph - N/A   Clear
5:15 AM 57.2 °F 32.0 °F 38% 30.04 in 10.0 mi South 13.8 mph - N/A   Clear
5:35 AM 57.2 °F 33.8 °F 41% 30.05 in 10.0 mi SSW 9.2 mph 16.1 mph N/A   Clear
5:55 AM 57.2 °F 33.8 °F 41% 30.06 in 10.0 mi South 10.4 mph - N/A   Clear
6:15 AM 57.2 °F 33.8 °F 41% 30.06 in 10.0 mi South 10.4 mph - N/A   Clear
6:35 AM 57.2 °F 33.8 °F 41% 30.07 in 10.0 mi South 12.7 mph - N/A   Clear
6:55 AM 59.0 °F 35.6 °F 42% 30.08 in 10.0 mi SSW 12.7 mph - N/A   Clear
7:15 AM 60.8 °F 35.6 °F 39% 30.09 in 10.0 mi SSW 11.5 mph - N/A   Clear
7:35 AM 62.6 °F 35.6 °F 37% 30.09 in 10.0 mi SSW 16.1 mph - N/A   Clear
7:55 AM 64.4 °F 35.6 °F 34% 30.09 in 10.0 mi South 15.0 mph 21.9 mph N/A   Clear
8:15 AM 64.4 °F 33.8 °F 32% 30.10 in 10.0 mi SSW 16.1 mph 25.3 mph N/A   Clear
8:35 AM 66.2 °F 32.0 °F 28% 30.10 in 10.0 mi South 23.0 mph 28.8 mph N/A   Clear
8:55 AM 68.0 °F 30.2 °F 24% 30.11 in 10.0 mi SSW 21.9 mph 28.8 mph N/A   Clear
9:15 AM 68.0 °F 30.2 °F 24% 30.12 in 10.0 mi SSW 25.3 mph 32.2 mph N/A   Clear
9:35 AM 69.8 °F 28.4 °F 21% 30.12 in 10.0 mi SSW 23.0 mph 35.7 mph N/A   Clear
9:55 AM 69.8 °F 28.4 °F 21% 30.11 in 10.0 mi SSW 26.5 mph 36.8 mph N/A   Clear
10:15 AM 69.8 °F 30.2 °F 23% 30.11 in 10.0 mi SSW 29.9 mph - N/A   Clear
10:35 AM 71.6 °F 30.2 °F 22% 30.11 in 10.0 mi SW 26.5 mph 34.5 mph N/A   Clear
10:55 AM 71.6 °F 30.2 °F 22% 30.11 in 10.0 mi SW 28.8 mph 38.0 mph N/A   Clear
11:15 AM 71.6 °F 28.4 °F 20% 30.11 in 10.0 mi SSW 26.5 mph 38.0 mph N/A   Clear
11:35 AM 73.4 °F 30.2 °F 20% 30.11 in 10.0 mi SW 25.3 mph 35.7 mph N/A   Clear
11:55 AM 73.4 °F 28.4 °F 19% 30.11 in 10.0 mi SW 29.9 mph 40.3 mph N/A   Clear
12:15 PM 73.4 °F 28.4 °F 19% 30.10 in 10.0 mi SSW 28.8 mph 35.7 mph N/A   Clear
12:35 PM 75.2 °F 30.2 °F 19% 30.10 in 10.0 mi South 24.2 mph 36.8 mph N/A   Clear
12:55 PM 75.2 °F 28.4 °F 18% 30.10 in 10.0 mi SSW 25.3 mph 36.8 mph N/A   Clear
1:15 PM 75.2 °F 28.4 °F 18% 30.10 in 10.0 mi SSW 27.6 mph 39.1 mph N/A   Clear
1:35 PM 75.2 °F 26.6 °F 17% 30.09 in 10.0 mi SW 25.3 mph 35.7 mph N/A   Clear
1:55 PM 75.2 °F 28.4 °F 18% 30.08 in 10.0 mi SSW 28.8 mph 35.7 mph N/A   Clear
2:15 PM 77.0 °F 28.4 °F 17% 30.08 in 10.0 mi South 23.0 mph 32.2 mph N/A   Clear
2:35 PM 75.2 °F 28.4 °F 18% 30.07 in 10.0 mi South 27.6 mph - N/A   Clear
2:55 PM 77.0 °F 28.4 °F 17% 30.07 in 10.0 mi South 24.2 mph 35.7 mph N/A   Clear
3:15 PM 75.2 °F 28.4 °F 18% 30.08 in 10.0 mi SSW 20.7 mph 34.5 mph N/A   Clear
3:35 PM 75.2 °F 28.4 °F 18% 30.07 in 10.0 mi SSW 19.6 mph 33.4 mph N/A   Clear
3:55 PM 75.2 °F 26.6 °F 17% 30.07 in 10.0 mi SW 23.0 mph 33.4 mph N/A   Clear
4:15 PM 75.2 °F 26.6 °F 17% 30.07 in 10.0 mi SW 24.2 mph 33.4 mph N/A   Clear
4:35 PM 75.2 °F 28.4 °F 18% 30.08 in 10.0 mi SW 23.0 mph 31.1 mph N/A   Clear
4:55 PM 73.4 °F 28.4 °F 19% 30.08 in 10.0 mi SW 25.3 mph 31.1 mph N/A   Clear
5:15 PM 73.4 °F 26.6 °F 18% 30.07 in 10.0 mi SW 18.4 mph 28.8 mph N/A   Clear
5:35 PM 71.6 °F 28.4 °F 20% 30.08 in 10.0 mi SW 15.0 mph 25.3 mph N/A   Clear
5:55 PM 69.8 °F 28.4 °F 21% 30.08 in 10.0 mi SW 15.0 mph 24.2 mph N/A   Clear
6:15 PM 68.0 °F 28.4 °F 23% 30.08 in 10.0 mi SW 15.0 mph - N/A   Clear
6:35 PM 66.2 °F 28.4 °F 24% 30.09 in 10.0 mi SW 15.0 mph - N/A   Clear
6:55 PM 66.2 °F 28.4 °F 24% 30.09 in 10.0 mi WSW 11.5 mph - N/A   Clear
7:15 PM 64.4 °F 28.4 °F 26% 30.10 in 10.0 mi SW 10.4 mph - N/A   Clear
7:35 PM 62.6 °F 28.4 °F 27% 30.11 in 10.0 mi SSW 6.9 mph - N/A   Clear
7:55 PM 60.8 °F 28.4 °F 29% 30.12 in 10.0 mi SSW 5.8 mph - N/A   Clear
8:15 PM 59.0 °F 28.4 °F 31% 30.12 in 10.0 mi South 4.6 mph - N/A   Clear
8:35 PM 57.2 °F 28.4 °F 33% 30.13 in 10.0 mi South 5.8 mph - N/A   Clear
8:55 PM 57.2 °F 28.4 °F 33% 30.13 in 10.0 mi South 8.1 mph - N/A   Clear
9:15 PM 57.2 °F 28.4 °F 33% 30.14 in 10.0 mi South 8.1 mph - N/A   Clear
9:35 PM 57.2 °F 30.2 °F 36% 30.14 in 10.0 mi South 6.9 mph - N/A   Clear
9:55 PM 57.2 °F 30.2 °F 36% 30.14 in 10.0 mi SSW 5.8 mph - N/A   Clear
10:15 PM 57.2 °F 30.2 °F 36% 30.14 in 10.0 mi South 6.9 mph - N/A   Clear
10:35 PM 55.4 °F 30.2 °F 38% 30.15 in 10.0 mi South 5.8 mph - N/A   Clear
10:55 PM 55.4 °F 30.2 °F 38% 30.15 in 10.0 mi South 8.1 mph - N/A   Clear
11:15 PM 57.2 °F 30.2 °F 36% 30.14 in 10.0 mi South 9.2 mph - N/A   Clear
11:35 PM 55.4 °F 30.2 °F 38% 30.14 in 10.0 mi South 9.2 mph - N/A   Clear
11:55 PM 55.4 °F 32.0 °F 41% 30.15 in 10.0 mi South 8.1 mph - N/A   Clear